| time (UTC) | temp F | wind direction | speed knots | gust knots | rain 1hr in | rain 24hr in | rain mn in | humidity % | barometer mb |
| 20260506135523 | 52 | 0 | 0.0 | 0.0 | 0.00 | 0.06 | 0.00 | 90 | 1018.7 |
| 20260506135002 | 52 | 0 | 0.0 | 0.0 | 0.00 | 0.06 | 0.00 | 90 | 1018.7 |
| 20260506134502 | 52 | 338 | 0.0 | 0.9 | 0.00 | 0.06 | 0.00 | 90 | 1018.7 |
| 20260506134002 | 52 | 338 | 0.0 | 0.9 | 0.00 | 0.06 | 0.00 | 90 | 1018.7 |
| 20260506133502 | 52 | 338 | 0.0 | 0.9 | 0.00 | 0.06 | 0.00 | 90 | 1018.7 |
| 20260506133002 | 52 | 338 | 0.0 | 1.7 | 0.00 | 0.06 | 0.00 | 90 | 1018.7 |
| 20260506132523 | 52 | 338 | 0.0 | 2.6 | 0.00 | 0.06 | 0.00 | 90 | 1018.7 |
| 20260506132002 | 52 | 338 | 0.0 | 2.6 | 0.00 | 0.06 | 0.00 | 90 | 1018.7 |
| 20260506131502 | 52 | 0 | 0.0 | 0.0 | 0.00 | 0.06 | 0.00 | 90 | 1018.7 |
| 20260506131002 | 52 | 0 | 0.0 | 0.0 | 0.00 | 0.06 | 0.00 | 90 | 1018.7 |
| 20260506130503 | 52 | 0 | 0.0 | 0.0 | 0.00 | 0.06 | 0.00 | 90 | 1018.7 |
| 20260506130003 | 52 | 0 | 0.0 | 0.0 | 0.00 | 0.06 | 0.00 | 90 | 1018.7 |
| 20260506125502 | 52 | 0 | 0.0 | 0.0 | 0.00 | 0.06 | 0.00 | 90 | 1018.7 |
| 20260506125023 | 52 | 0 | 0.0 | 0.0 | 0.00 | 0.06 | 0.00 | 90 | 1018.7 |
| 20260506124502 | 52 | 0 | 0.0 | 0.0 | 0.00 | 0.06 | 0.00 | 90 | 1018.7 |
| 20260506124002 | 52 | 0 | 0.0 | 0.0 | 0.00 | 0.06 | 0.00 | 90 | 1018.7 |
| 20260506123502 | 52 | 0 | 0.0 | 0.0 | 0.00 | 0.06 | 0.00 | 90 | 1018.7 |
| 20260506123002 | 52 | 0 | 0.0 | 0.0 | 0.00 | 0.06 | 0.00 | 90 | 1018.7 |
| 20260506122502 | 52 | 0 | 0.0 | 0.0 | 0.00 | 0.06 | 0.00 | 90 | 1018.7 |
| 20260506122002 | 52 | 0 | 0.0 | 0.0 | 0.00 | 0.06 | 0.00 | 90 | 1018.7 |
| 20260506121502 | 52 | 0 | 0.0 | 0.0 | 0.00 | 0.06 | 0.00 | 90 | 1018.7 |
| 20260506121024 | 52 | 0 | 0.0 | 0.0 | 0.00 | 0.06 | 0.00 | 90 | 1018.7 |
| 20260506120502 | 52 | 0 | 0.0 | 0.0 | 0.00 | 0.07 | 0.00 | 90 | 1018.7 |
| 20260506120002 | 52 | 331 | 0.0 | 2.6 | 0.00 | 0.07 | 0.00 | 90 | 1018.7 |
| 20260506115502 | 52 | 331 | 0.0 | 2.6 | 0.00 | 0.07 | 0.00 | 90 | 1018.7 |
| 20260506115002 | 52 | 329 | 0.0 | 0.9 | 0.00 | 0.07 | 0.00 | 90 | 1018.7 |
| 20260506114502 | 52 | 329 | 0.0 | 1.7 | 0.00 | 0.07 | 0.00 | 90 | 1018.7 |
| 20260506114002 | 52 | 329 | 0.0 | 1.7 | 0.00 | 0.07 | 0.00 | 90 | 1018.7 |
| 20260506113523 | 52 | 329 | 0.0 | 1.7 | 0.00 | 0.07 | 0.00 | 90 | 1018.7 |
| 20260506113002 | 52 | 329 | 0.0 | 1.7 | 0.00 | 0.07 | 0.00 | 90 | 1018.7 |
| 20260506112502 | 52 | 329 | 0.0 | 0.9 | 0.00 | 0.08 | 0.00 | 90 | 1018.7 |
| 20260506112002 | 52 | 329 | 0.0 | 0.9 | 0.00 | 0.08 | 0.00 | 90 | 1018.7 |
| 20260506111502 | 52 | 329 | 0.0 | 1.7 | 0.00 | 0.08 | 0.00 | 90 | 1018.7 |
| 20260506111002 | 52 | 329 | 0.0 | 1.7 | 0.00 | 0.08 | 0.00 | 90 | 1018.7 |
| 20260506110502 | 52 | 329 | 0.0 | 0.9 | 0.00 | 0.08 | 0.00 | 90 | 1018.7 |
| 20260506110002 | 52 | 329 | 0.0 | 0.9 | 0.00 | 0.08 | 0.00 | 90 | 1014.3 |
| 20260506105502 | 52 | 329 | 0.0 | 0.9 | 0.00 | 0.08 | 0.00 | 90 | 1014.3 |
| 20260506105002 | 52 | 328 | 0.0 | 1.7 | 0.00 | 0.08 | 0.00 | 90 | 1014.3 |
| 20260506104502 | 52 | 328 | 0.0 | 1.7 | 0.00 | 0.08 | 0.00 | 90 | 1014.3 |
| 20260506104002 | 52 | 0 | 0.0 | 0.0 | 0.00 | 0.08 | 0.00 | 90 | 1014.3 |
| 20260506103502 | 52 | 0 | 0.0 | 0.0 | 0.00 | 0.08 | 0.00 | 90 | 1014.3 |
| 20260506103002 | 52 | 0 | 0.0 | 0.0 | 0.00 | 0.08 | 0.00 | 90 | 1014.3 |
| 20260506102502 | 52 | 0 | 0.0 | 0.0 | 0.00 | 0.08 | 0.00 | 90 | 1014.3 |
| 20260506102002 | 52 | 0 | 0.0 | 0.0 | 0.00 | 0.09 | 0.00 | 90 | 1014.3 |
| 20260506101502 | 52 | 0 | 0.0 | 0.0 | 0.00 | 0.09 | 0.00 | 90 | 1014.3 |
| 20260506101002 | 52 | 0 | 0.0 | 0.0 | 0.00 | 0.09 | 0.00 | 90 | 1014.3 |
| 20260506100502 | 52 | 0 | 0.0 | 0.0 | 0.00 | 0.10 | 0.00 | 90 | 1014.3 |
| 20260506100003 | 52 | 0 | 0.0 | 0.0 | 0.00 | 0.10 | 0.00 | 90 | 1014.3 |
| 20260506095502 | 52 | 0 | 0.0 | 0.0 | 0.00 | 0.10 | 0.00 | 90 | 1014.3 |
| 20260506095002 | 52 | 0 | 0.0 | 0.0 | 0.00 | 0.10 | 0.00 | 90 | 1014.3 |
| 20260506094523 | 52 | 0 | 0.0 | 0.0 | 0.00 | 0.10 | 0.00 | 90 | 1014.3 |
| 20260506094002 | 52 | 0 | 0.0 | 0.0 | 0.00 | 0.10 | 0.00 | 90 | 1014.3 |
| 20260506093502 | 52 | 0 | 0.0 | 0.0 | 0.00 | 0.10 | 0.00 | 90 | 1014.3 |
| 20260506093002 | 52 | 0 | 0.0 | 0.0 | 0.00 | 0.10 | 0.00 | 90 | 1014.3 |
| 20260506092502 | 52 | 0 | 0.0 | 0.0 | 0.00 | 0.10 | 0.00 | 90 | 1014.3 |
| 20260506092003 | 52 | 0 | 0.0 | 0.0 | 0.00 | 0.10 | 0.00 | 90 | 1014.3 |
| 20260506091502 | 52 | 0 | 0.0 | 0.0 | 0.00 | 0.10 | 0.00 | 90 | 1014.3 |
| 20260506091002 | 52 | 0 | 0.0 | 0.0 | 0.00 | 0.10 | 0.00 | 90 | 1014.3 |
| 20260506090502 | 52 | 0 | 0.0 | 0.0 | 0.00 | 0.10 | 0.00 | 90 | 1014.3 |
| 20260506090002 | 52 | 0 | 0.0 | 0.0 | 0.00 | 0.10 | 0.00 | 90 | 1014.3 |
| 20260506085502 | 52 | 0 | 0.0 | 0.0 | 0.00 | 0.10 | 0.00 | 90 | 1014.3 |
| 20260506085024 | 52 | 0 | 0.0 | 0.0 | 0.00 | 0.10 | 0.00 | 90 | 1014.3 |
| 20260506084502 | 52 | 0 | 0.0 | 0.0 | 0.00 | 0.10 | 0.00 | 90 | 1014.3 |
| 20260506084002 | 52 | 0 | 0.0 | 0.0 | 0.00 | 0.10 | 0.00 | 90 | 1014.3 |
| 20260506083502 | 52 | 0 | 0.0 | 0.0 | 0.00 | 0.10 | 0.00 | 90 | 1014.3 |
| 20260506083002 | 52 | 0 | 0.0 | 0.0 | 0.00 | 0.10 | 0.00 | 90 | 1014.3 |
| 20260506082502 | 52 | 0 | 0.0 | 0.0 | 0.00 | 0.10 | 0.00 | 90 | 1014.3 |
| 20260506082002 | 52 | 0 | 0.0 | 0.0 | 0.00 | 0.10 | 0.00 | 90 | 1014.3 |
| 20260506081502 | 52 | 0 | 0.0 | 0.0 | 0.00 | 0.10 | 0.00 | 90 | 1014.3 |
| 20260506081002 | 52 | 0 | 0.0 | 0.0 | 0.00 | 0.10 | 0.00 | 90 | 1014.3 |
| 20260506080503 | 52 | 0 | 0.0 | 0.0 | 0.00 | 0.10 | 0.00 | 90 | 1014.3 |
| 20260506073502 | 52 | 0 | 0.0 | 0.0 | 0.00 | 0.10 | 0.00 | 89 | 1014.3 |
| 20260506073002 | 52 | 0 | 0.0 | 0.0 | 0.00 | 0.10 | 0.00 | 89 | 1014.3 |
| 20260506072503 | 52 | 0 | 0.0 | 0.0 | 0.00 | 0.10 | 0.00 | 89 | 1014.3 |
| 20260506072002 | 53 | 0 | 0.0 | 0.0 | 0.00 | 0.10 | 0.00 | 89 | 1014.3 |
| 20260506071503 | 53 | 0 | 0.0 | 0.0 | 0.00 | 0.10 | 0.00 | 89 | 1014.3 |
| 20260506071002 | 53 | 0 | 0.0 | 0.0 | 0.00 | 0.10 | 0.00 | 89 | 1014.3 |
| 20260506070503 | 53 | 0 | 0.0 | 0.0 | 0.00 | 0.10 | 0.00 | 89 | 1014.3 |
| 20260506062502 | 53 | 330 | 0.0 | 1.7 | 0.00 | 0.10 | 0.10 | 89 | 1014.3 |
| 20260506062002 | 53 | 327 | 0.0 | 1.7 | 0.00 | 0.10 | 0.10 | 89 | 1014.3 |
| 20260506061523 | 53 | 320 | 0.0 | 0.9 | 0.00 | 0.10 | 0.10 | 89 | 1014.3 |
| 20260506061002 | 53 | 0 | 0.0 | 0.0 | 0.00 | 0.10 | 0.10 | 89 | 1014.3 |
| 20260506060524 | 53 | 0 | 0.0 | 0.0 | 0.00 | 0.10 | 0.10 | 89 | 1014.3 |
| 20260506051003 | 54 | 269 | 0.0 | 0.9 | 0.00 | 0.10 | 0.10 | 88 | 1014.3 |
| 20260506050503 | 54 | 270 | 0.0 | 0.9 | 0.00 | 0.10 | 0.10 | 88 | 1014.3 |
| 20260506045003 | 54 | 281 | 0.0 | 0.9 | 0.00 | 0.10 | 0.10 | 88 | 1014.3 |
| 20260506044523 | 54 | 277 | 0.0 | 0.9 | 0.00 | 0.10 | 0.10 | 88 | 1014.3 |
| 20260506044003 | 54 | 270 | 0.0 | 0.9 | 0.00 | 0.10 | 0.10 | 88 | 1014.3 |
| 20260506043503 | 54 | 268 | 0.0 | 0.9 | 0.00 | 0.10 | 0.10 | 88 | 1014.3 |
| 20260506043003 | 54 | 269 | 0.0 | 0.9 | 0.00 | 0.10 | 0.10 | 88 | 1014.3 |
| 20260506042502 | 54 | 0 | 0.0 | 0.0 | 0.00 | 0.10 | 0.10 | 88 | 1014.3 |
| 20260506042002 | 54 | 0 | 0.0 | 0.0 | 0.00 | 0.10 | 0.10 | 88 | 1014.3 |
| 20260506041503 | 54 | 0 | 0.0 | 0.0 | 0.00 | 0.10 | 0.10 | 88 | 1014.3 |
| 20260506041003 | 54 | 0 | 0.0 | 0.0 | 0.00 | 0.10 | 0.10 | 88 | 1014.3 |
| 20260506040503 | 54 | 0 | 0.0 | 0.0 | 0.00 | 0.10 | 0.10 | 88 | 1014.3 |
| 20260506040003 | 54 | 0 | 0.0 | 0.0 | 0.00 | 0.10 | 0.10 | 88 | 1014.3 |
| 20260506035503 | 54 | 0 | 0.0 | 0.0 | 0.00 | 0.10 | 0.10 | 88 | 1014.3 |
| 20260506035003 | 54 | 0 | 0.0 | 0.0 | 0.00 | 0.10 | 0.10 | 88 | 1014.3 |
| 20260506034502 | 54 | 248 | 0.0 | 0.9 | 0.00 | 0.10 | 0.10 | 87 | 1014.3 |
| 20260506034024 | 54 | 268 | 0.0 | 2.6 | 0.00 | 0.10 | 0.10 | 87 | 1014.3 |
| 20260506033524 | 54 | 268 | 0.0 | 2.6 | 0.00 | 0.10 | 0.10 | 87 | 1014.3 |
| 20260506033003 | 54 | 227 | 0.0 | 1.7 | 0.00 | 0.10 | 0.10 | 87 | 1014.3 |
| 20260506032524 | 54 | 267 | 0.0 | 3.5 | 0.00 | 0.10 | 0.10 | 87 | 1014.3 |
| 20260506032024 | 54 | 249 | 0.0 | 3.5 | 0.00 | 0.10 | 0.10 | 87 | 1014.3 |
| 20260506031503 | 54 | 166 | 0.0 | 1.7 | 0.00 | 0.10 | 0.10 | 86 | 1014.3 |
| 20260506031002 | 55 | 154 | 0.0 | 0.9 | 0.00 | 0.10 | 0.10 | 87 | 1014.3 |
| 20260506030503 | 55 | 131 | 0.0 | 1.7 | 0.00 | 0.10 | 0.10 | 86 | 1014.3 |
| 20260506030003 | 55 | 179 | 0.0 | 1.7 | 0.00 | 0.10 | 0.10 | 86 | 1014.3 |
| 20260506025503 | 55 | 290 | 0.0 | 1.7 | 0.00 | 0.10 | 0.10 | 86 | 1014.3 |
| 20260506025024 | 55 | 339 | 0.0 | 1.7 | 0.00 | 0.10 | 0.10 | 86 | 1014.3 |
| 20260506024503 | 55 | 352 | 0.0 | 1.7 | 0.00 | 0.10 | 0.10 | 86 | 1014.3 |
| 20260506024003 | 55 | 350 | 0.0 | 1.7 | 0.00 | 0.10 | 0.10 | 85 | 1014.3 |
| 20260506023524 | 55 | 342 | 0.0 | 1.7 | 0.00 | 0.10 | 0.10 | 85 | 1014.3 |
| 20260506023003 | 55 | 324 | 0.0 | 0.9 | 0.00 | 0.10 | 0.10 | 85 | 1014.3 |
| 20260506022524 | 55 | 289 | 0.0 | 2.6 | 0.00 | 0.10 | 0.10 | 85 | 1014.3 |
| 20260506022024 | 55 | 279 | 0.0 | 2.6 | 0.00 | 0.10 | 0.10 | 85 | 1014.3 |
| 20260506021503 | 56 | 284 | 0.0 | 1.7 | 0.00 | 0.10 | 0.10 | 85 | 1014.3 |
| 20260506021024 | 56 | 268 | 0.0 | 1.7 | 0.00 | 0.10 | 0.10 | 85 | 1014.3 |
| 20260506020503 | 56 | 238 | 0.0 | 2.6 | 0.00 | 0.10 | 0.10 | 85 | 1014.3 |
| 20260506020003 | 56 | 238 | 0.0 | 2.6 | 0.00 | 0.10 | 0.10 | 84 | 1014.3 |
| 20260506015503 | 56 | 238 | 0.9 | 3.5 | 0.00 | 0.10 | 0.10 | 84 | 1014.3 |
| 20260506015003 | 56 | 233 | 0.9 | 3.5 | 0.00 | 0.10 | 0.10 | 84 | 1014.3 |
| 20260506014503 | 56 | 232 | 0.9 | 4.3 | 0.00 | 0.10 | 0.10 | 84 | 1014.3 |
| 20260506014024 | 56 | 243 | 0.0 | 4.3 | 0.00 | 0.10 | 0.10 | 84 | 1014.3 |
| 20260506013524 | 56 | 280 | 0.0 | 2.6 | 0.00 | 0.10 | 0.10 | 84 | 1014.3 |
| 20260506013024 | 57 | 292 | 0.0 | 1.7 | 0.00 | 0.10 | 0.10 | 84 | 1014.3 |
| 20260506012503 | 57 | 291 | 0.0 | 1.7 | 0.00 | 0.10 | 0.10 | 84 | 1014.3 |
| 20260506012003 | 57 | 277 | 0.0 | 1.7 | 0.00 | 0.10 | 0.10 | 84 | 1014.3 |
| 20260506011503 | 57 | 261 | 0.0 | 1.7 | 0.00 | 0.10 | 0.10 | 84 | 1014.3 |
| 20260506011024 | 57 | 260 | 0.0 | 1.7 | 0.00 | 0.10 | 0.10 | 84 | 1014.3 |
| 20260506010524 | 57 | 270 | 0.0 | 1.7 | 0.00 | 0.10 | 0.10 | 84 | 1014.3 |
| 20260506010003 | 57 | 283 | 0.0 | 1.7 | 0.00 | 0.10 | 0.10 | 84 | 1014.3 |
| 20260506005503 | 57 | 275 | 0.0 | 0.9 | 0.00 | 0.10 | 0.10 | 84 | 1014.3 |
| 20260506005003 | 57 | 297 | 0.0 | 1.7 | 0.00 | 0.10 | 0.10 | 84 | 1014.3 |
| 20260506004503 | 57 | 288 | 0.0 | 1.7 | 0.00 | 0.10 | 0.10 | 84 | 1014.3 |
| 20260506004024 | 57 | 233 | 0.0 | 3.5 | 0.00 | 0.10 | 0.10 | 84 | 1014.3 |
| 20260506003503 | 57 | 246 | 0.0 | 3.5 | 0.00 | 0.10 | 0.10 | 83 | 1014.3 |
| 20260506003003 | 57 | 257 | 0.0 | 2.6 | 0.00 | 0.10 | 0.10 | 84 | 1014.3 |
| 20260506002503 | 57 | 252 | 0.0 | 3.5 | 0.00 | 0.10 | 0.10 | 84 | 1014.3 |
| 20260506002003 | 57 | 249 | 0.0 | 3.5 | 0.00 | 0.10 | 0.10 | 83 | 1014.3 |
| 20260506001503 | 57 | 234 | 0.0 | 1.7 | 0.00 | 0.10 | 0.10 | 84 | 1014.3 |
| 20260506001024 | 57 | 236 | 0.0 | 2.6 | 0.00 | 0.10 | 0.10 | 84 | 1014.3 |
| 20260506000503 | 57 | 244 | 0.0 | 2.6 | 0.00 | 0.10 | 0.10 | 84 | 1014.3 |
| 20260506000003 | 57 | 254 | 0.0 | 1.7 | 0.00 | 0.10 | 0.10 | 84 | 1014.3 |
| 20260505235503 | 57 | 253 | 0.0 | 1.7 | 0.00 | 0.10 | 0.10 | 84 | 1014.3 |
| 20260505235003 | 57 | 259 | 0.0 | 1.7 | 0.00 | 0.10 | 0.10 | 84 | 1014.3 |
| 20260505234524 | 57 | 273 | 0.0 | 0.9 | 0.00 | 0.10 | 0.10 | 84 | 1014.3 |
| 20260505234003 | 58 | 273 | 0.0 | 0.9 | 0.00 | 0.10 | 0.10 | 84 | 1014.3 |
| 20260505233524 | 58 | 270 | 0.0 | 1.7 | 0.00 | 0.10 | 0.10 | 84 | 1014.3 |
| 20260505233003 | 58 | 297 | 0.9 | 3.5 | 0.00 | 0.10 | 0.10 | 83 | 1014.3 |
| 20260505232503 | 58 | 279 | 0.9 | 3.5 | 0.00 | 0.10 | 0.10 | 83 | 1014.3 |
| 20260505232003 | 58 | 241 | 0.9 | 4.3 | 0.00 | 0.10 | 0.10 | 84 | 1014.3 |
| 20260505231503 | 58 | 266 | 0.0 | 4.3 | 0.00 | 0.10 | 0.10 | 84 | 1014.3 |
| 20260505231003 | 58 | 298 | 0.0 | 2.6 | 0.00 | 0.10 | 0.10 | 84 | 1014.3 |
| 20260505230524 | 57 | 290 | 0.0 | 2.6 | 0.00 | 0.10 | 0.10 | 85 | 1014.3 |
| 20260505230003 | 57 | 268 | 0.0 | 1.7 | 0.00 | 0.10 | 0.10 | 85 | 1014.3 |
| 20260505225503 | 57 | 259 | 0.9 | 5.2 | 0.00 | 0.10 | 0.10 | 85 | 1014.3 |
| 20260505225003 | 57 | 257 | 0.9 | 5.2 | 0.00 | 0.10 | 0.10 | 85 | 1014.3 |
| 20260505224503 | 57 | 259 | 0.0 | 2.6 | 0.00 | 0.10 | 0.10 | 86 | 1014.3 |
| 20260505224024 | 57 | 258 | 0.0 | 1.7 | 0.00 | 0.10 | 0.10 | 87 | 1014.3 |
| 20260505223524 | 56 | 244 | 0.0 | 1.7 | 0.00 | 0.10 | 0.10 | 87 | 1014.3 |
| 20260505223003 | 56 | 244 | 0.0 | 1.7 | 0.00 | 0.10 | 0.10 | 87 | 1014.3 |
| 20260505222503 | 56 | 245 | 0.0 | 1.7 | 0.00 | 0.10 | 0.10 | 87 | 1014.3 |
| 20260505222003 | 56 | 243 | 0.0 | 2.6 | 0.00 | 0.10 | 0.10 | 87 | 1014.3 |
| 20260505221524 | 56 | 252 | 0.0 | 2.6 | 0.00 | 0.10 | 0.10 | 88 | 1014.3 |
| 20260505221003 | 56 | 251 | 0.0 | 2.6 | 0.00 | 0.10 | 0.10 | 89 | 1014.3 |
| 20260505220503 | 56 | 240 | 0.0 | 1.7 | 0.00 | 0.10 | 0.10 | 89 | 1014.3 |
| 20260505220003 | 56 | 256 | 0.0 | 1.7 | 0.00 | 0.10 | 0.10 | 90 | 1014.3 |
| 20260505215524 | 56 | 257 | 0.0 | 1.7 | 0.00 | 0.10 | 0.10 | 90 | 1014.3 |
| 20260505215003 | 56 | 256 | 0.0 | 0.9 | 0.00 | 0.10 | 0.10 | 90 | 1014.3 |
| 20260505214524 | 56 | 255 | 0.0 | 0.9 | 0.00 | 0.10 | 0.10 | 91 | 1014.3 |
| 20260505214003 | 56 | 259 | 0.0 | 2.6 | 0.00 | 0.10 | 0.10 | 91 | 1014.3 |
| 20260505213503 | 56 | 281 | 0.0 | 2.6 | 0.00 | 0.10 | 0.10 | 91 | 1014.3 |
| 20260505213003 | 56 | 287 | 0.0 | 3.5 | 0.00 | 0.10 | 0.10 | 91 | 1014.3 |
| 20260505212503 | 55 | 265 | 0.0 | 3.5 | 0.00 | 0.10 | 0.10 | 92 | 1014.3 |
| 20260505212003 | 55 | 236 | 0.0 | 0.9 | 0.00 | 0.10 | 0.10 | 92 | 1014.3 |
| 20260505211503 | 55 | 233 | 0.0 | 1.7 | 0.00 | 0.10 | 0.10 | 92 | 1014.3 |
| 20260505211003 | 55 | 254 | 0.9 | 2.6 | 0.00 | 0.10 | 0.10 | 92 | 1014.3 |
| 20260505210503 | 55 | 279 | 0.9 | 2.6 | 0.00 | 0.10 | 0.10 | 93 | 1014.3 |
| 20260505210003 | 55 | 292 | 0.0 | 2.6 | 0.00 | 0.10 | 0.10 | 93 | 1014.3 |
| 20260505205524 | 55 | 233 | 0.0 | 2.6 | 0.00 | 0.10 | 0.10 | 93 | 1014.3 |
| 20260505205003 | 55 | 226 | 0.0 | 2.6 | 0.00 | 0.10 | 0.10 | 94 | 1014.3 |
| 20260505204503 | 55 | 261 | 0.0 | 1.7 | 0.00 | 0.10 | 0.10 | 94 | 1014.3 |
| 20260505204024 | 55 | 327 | 0.0 | 2.6 | 0.00 | 0.10 | 0.10 | 94 | 1014.3 |
| 20260505203503 | 55 | 356 | 0.0 | 2.6 | 0.00 | 0.10 | 0.10 | 94 | 1014.3 |
| 20260505203024 | 55 | 335 | 0.0 | 2.6 | 0.00 | 0.10 | 0.10 | 94 | 1014.3 |
| 20260505202503 | 54 | 296 | 0.0 | 2.6 | 0.00 | 0.10 | 0.10 | 94 | 1014.3 |
| 20260505202003 | 54 | 251 | 0.0 | 2.6 | 0.00 | 0.10 | 0.10 | 95 | 1014.3 |
| 20260505201503 | 54 | 224 | 0.0 | 4.3 | 0.00 | 0.10 | 0.10 | 95 | 1014.3 |
| 20260505201003 | 54 | 237 | 0.9 | 4.3 | 0.00 | 0.10 | 0.10 | 94 | 1014.3 |
| 20260505200503 | 54 | 298 | 0.0 | 3.5 | 0.00 | 0.10 | 0.10 | 95 | 1014.3 |
| 20260505200024 | 54 | 257 | 0.0 | 4.3 | 0.00 | 0.10 | 0.10 | 95 | 1014.3 |
| 20260505195503 | 54 | 248 | 0.0 | 4.3 | 0.00 | 0.10 | 0.10 | 95 | 1014.3 |
| 20260505195003 | 54 | 263 | 0.9 | 2.6 | 0.00 | 0.10 | 0.10 | 95 | 1014.3 |
| 20260505194524 | 54 | 231 | 0.9 | 3.5 | 0.00 | 0.10 | 0.10 | 95 | 1014.3 |
| 20260505194003 | 54 | 233 | 0.9 | 4.3 | 0.00 | 0.10 | 0.10 | 95 | 1014.3 |
| 20260505193503 | 54 | 242 | 0.9 | 4.3 | 0.00 | 0.10 | 0.10 | 95 | 1014.3 |
| 20260505193003 | 54 | 236 | 0.9 | 3.5 | 0.00 | 0.10 | 0.10 | 96 | 1014.3 |
| 20260505192503 | 54 | 244 | 0.9 | 3.5 | 0.00 | 0.10 | 0.10 | 95 | 1014.3 |
| 20260505192003 | 53 | 253 | 0.0 | 2.6 | 0.00 | 0.10 | 0.10 | 95 | 1014.3 |
| 20260505191503 | 53 | 226 | 0.0 | 4.3 | 0.00 | 0.10 | 0.10 | 95 | 1014.3 |
| 20260505191003 | 53 | 236 | 0.9 | 5.2 | 0.00 | 0.10 | 0.10 | 95 | 1014.3 |
| 20260505190503 | 53 | 238 | 0.9 | 5.2 | 0.00 | 0.10 | 0.10 | 95 | 1014.3 |
| 20260505190024 | 53 | 236 | 0.0 | 1.7 | 0.00 | 0.10 | 0.10 | 95 | 1014.3 |
| 20260505185503 | 54 | 266 | 0.0 | 1.7 | 0.00 | 0.10 | 0.10 | 95 | 1014.3 |
| 20260505185003 | 54 | 251 | 0.0 | 2.6 | 0.00 | 0.10 | 0.10 | 95 | 1014.3 |
| 20260505184503 | 54 | 256 | 0.9 | 3.5 | 0.00 | 0.10 | 0.10 | 95 | 1014.3 |
| 20260505184003 | 54 | 264 | 0.9 | 3.5 | 0.01 | 0.10 | 0.10 | 96 | 1014.3 |
| 20260505183503 | 54 | 256 | 0.9 | 4.3 | 0.01 | 0.10 | 0.10 | 96 | 1014.3 |
| 20260505183024 | 54 | 276 | 0.9 | 4.3 | 0.01 | 0.10 | 0.10 | 95 | 1014.3 |
| 20260505182503 | 54 | 298 | 0.0 | 1.7 | 0.01 | 0.10 | 0.10 | 96 | 1014.3 |
| 20260505182003 | 54 | 239 | 0.9 | 2.6 | 0.01 | 0.10 | 0.10 | 96 | 1014.3 |
| 20260505181503 | 53 | 251 | 0.9 | 2.6 | 0.01 | 0.10 | 0.10 | 96 | 1014.3 |
| 20260505181003 | 53 | 273 | 0.9 | 3.5 | 0.01 | 0.10 | 0.10 | 95 | 1014.3 |
| 20260505180503 | 53 | 261 | 0.9 | 3.5 | 0.01 | 0.10 | 0.10 | 95 | 1014.3 |
| 20260505180003 | 53 | 257 | 0.0 | 1.7 | 0.01 | 0.10 | 0.10 | 95 | 1014.3 |
| 20260505175503 | 53 | 265 | 0.0 | 2.6 | 0.01 | 0.10 | 0.10 | 95 | 1014.3 |
| 20260505175003 | 53 | 289 | 0.0 | 2.6 | 0.01 | 0.10 | 0.10 | 95 | 1014.3 |
| 20260505174503 | 53 | 298 | 0.9 | 2.6 | 0.01 | 0.10 | 0.10 | 95 | 1014.3 |
| 20260505174003 | 53 | 298 | 0.0 | 2.6 | 0.00 | 0.09 | 0.09 | 95 | 1014.3 |
| 20260505173503 | 53 | 340 | 0.0 | 2.6 | 0.00 | 0.09 | 0.09 | 95 | 1014.3 |
| 20260505173003 | 53 | 325 | 0.0 | 2.6 | 0.01 | 0.09 | 0.09 | 95 | 1014.3 |
| 20260505172524 | 53 | 296 | 0.0 | 1.7 | 0.02 | 0.09 | 0.09 | 95 | 1014.3 |
| 20260505172003 | 53 | 297 | 0.0 | 2.6 | 0.03 | 0.09 | 0.09 | 95 | 1014.3 |
| 20260505171503 | 53 | 315 | 0.9 | 4.3 | 0.03 | 0.09 | 0.09 | 95 | 1014.3 |
| 20260505171003 | 52 | 321 | 0.9 | 4.3 | 0.04 | 0.09 | 0.09 | 95 | 1014.3 |
| 20260505170503 | 52 | 309 | 0.9 | 5.2 | 0.05 | 0.09 | 0.09 | 95 | 1014.3 |
| 20260505170003 | 52 | 310 | 0.9 | 5.2 | 0.05 | 0.09 | 0.09 | 95 | 1014.3 |
| 20260505165504 | 52 | 254 | 0.0 | 4.3 | 0.05 | 0.09 | 0.09 | 95 | 1014.3 |
| 20260505165003 | 52 | 233 | 0.0 | 4.3 | 0.05 | 0.09 | 0.09 | 95 | 1014.3 |
| 20260505164503 | 52 | 217 | 0.9 | 2.6 | 0.05 | 0.09 | 0.09 | 95 | 1014.3 |
| 20260505164003 | 52 | 217 | 0.9 | 6.1 | 0.05 | 0.09 | 0.09 | 95 | 1014.3 |
| 20260505163503 | 52 | 248 | 0.9 | 6.1 | 0.05 | 0.09 | 0.09 | 95 | 1014.3 |
| 20260505163003 | 52 | 268 | 0.9 | 4.3 | 0.04 | 0.08 | 0.08 | 95 | 1014.3 |
| 20260505162524 | 52 | 252 | 0.0 | 3.5 | 0.03 | 0.07 | 0.07 | 94 | 1014.3 |
| 20260505162003 | 52 | 234 | 0.0 | 5.2 | 0.02 | 0.06 | 0.06 | 94 | 1014.3 |
| 20260505161503 | 52 | 231 | 0.0 | 3.5 | 0.02 | 0.06 | 0.06 | 94 | 1014.3 |
| 20260505161003 | 52 | 231 | 0.0 | 1.7 | 0.01 | 0.05 | 0.05 | 94 | 1014.3 |
| 20260505160524 | 52 | 230 | 0.0 | 1.7 | 0.00 | 0.04 | 0.04 | 94 | 1014.3 |
| 20260505153003 | 51 | 229 | 0.0 | 0.9 | 0.00 | 0.04 | 0.04 | 94 | 1014.3 |
| 20260505152504 | 51 | 229 | 0.0 | 0.9 | 0.00 | 0.04 | 0.04 | 94 | 1014.3 |
| 20260505152003 | 51 | 229 | 0.0 | 2.6 | 0.00 | 0.04 | 0.04 | 94 | 1014.3 |
| 20260505151503 | 51 | 228 | 0.0 | 2.6 | 0.00 | 0.04 | 0.04 | 94 | 1014.3 |
| 20260505151003 | 51 | 227 | 0.0 | 2.6 | 0.00 | 0.04 | 0.04 | 94 | 1014.3 |
| 20260505150503 | 51 | 225 | 0.0 | 2.6 | 0.00 | 0.04 | 0.04 | 94 | 1014.3 |
| 20260505140503 | 50 | 219 | 0.9 | 1.7 | 0.00 | 0.04 | 0.04 | 94 | 1014.3 |